TimeAKST,TemperatureF,Dew PointF,Humidity,Sea Level PressureIn,VisibilityMPH,Wind Direction,Wind SpeedMPH,Gust SpeedMPH,PrecipitationIn,Events,Conditions,WindDirDegrees,DateUTC
12:53 AM,-36.0,-9999,N/A,30.18,10.0,South,3.5,-,N/A,,Clear,180,2012-12-03 09:53:00
1:23 AM,-36.4,-9999,N/A,29.90,10.0,Calm,Calm,-,N/A,,Partly Cloudy,0,2012-12-03 10:23:00
1:53 AM,-38.0,-9999,N/A,30.19,10.0,Calm,Calm,-,N/A,,Mostly Cloudy,0,2012-12-03 10:53:00
2:53 AM,-38.0,-9999,N/A,30.19,10.0,Calm,Calm,-,N/A,,Mostly Cloudy,0,2012-12-03 11:53:00
3:53 AM,-36.9,-9999,N/A,30.20,10.0,SSE,3.5,-,N/A,,Mostly Cloudy,160,2012-12-03 12:53:00
4:53 AM,-35.0,-9999,N/A,30.21,10.0,Calm,Calm,-,N/A,,Overcast,0,2012-12-03 13:53:00
5:53 AM,-35.0,-9999,N/A,30.21,10.0,Calm,Calm,-,N/A,,Scattered Clouds,0,2012-12-03 14:53:00
6:53 AM,-36.9,-9999,N/A,30.22,10.0,Calm,Calm,-,N/A,,Clear,0,2012-12-03 15:53:00
7:53 AM,-36.0,-9999,N/A,30.22,10.0,Calm,Calm,-,N/A,,Clear,0,2012-12-03 16:53:00
8:53 AM,-38.0,-9999,N/A,30.23,10.0,SE,3.5,-,N/A,,Scattered Clouds,140,2012-12-03 17:53:00
9:53 AM,-38.9,-9999,N/A,30.25,10.0,Calm,Calm,-,N/A,,Scattered Clouds,0,2012-12-03 18:53:00
10:53 AM,-41.1,-9999,N/A,30.25,10.0,East,3.5,-,N/A,,Scattered Clouds,90,2012-12-03 19:53:00
11:53 AM,-38.9,-9999,N/A,30.25,10.0,Calm,Calm,-,N/A,,Scattered Clouds,0,2012-12-03 20:53:00
12:53 PM,-36.0,-9999,N/A,30.25,10.0,Calm,Calm,-,N/A,,Scattered Clouds,0,2012-12-03 21:53:00
1:53 PM,-34.1,-9999,N/A,30.25,10.0,Calm,Calm,-,N/A,,Scattered Clouds,0,2012-12-03 22:53:00
2:53 PM,-34.1,-9999,N/A,30.25,10.0,Calm,Calm,-,N/A,,Scattered Clouds,0,2012-12-03 23:53:00
3:53 PM,-36.0,-9999,N/A,30.25,10.0,Calm,Calm,-,N/A,,Scattered Clouds,0,2012-12-04 00:53:00
4:53 PM,-38.9,-9999,N/A,30.25,10.0,ESE,3.5,-,N/A,,Scattered Clouds,120,2012-12-04 01:53:00
5:53 PM,-41.1,-9999,N/A,30.26,10.0,Calm,Calm,-,N/A,,Scattered Clouds,0,2012-12-04 02:53:00
6:53 PM,-40.0,-9999,N/A,30.27,7.0,Calm,Calm,-,N/A,,Mostly Cloudy,0,2012-12-04 03:53:00
7:53 PM,-36.0,-9999,N/A,30.25,10.0,SSE,3.5,-,N/A,,Mostly Cloudy,160,2012-12-04 04:53:00
8:53 PM,-38.9,-9999,N/A,30.26,10.0,SE,3.5,-,N/A,,Overcast,130,2012-12-04 05:53:00
9:53 PM,-38.0,-9999,N/A,30.25,10.0,Calm,Calm,-,N/A,,Overcast,0,2012-12-04 06:53:00
10:53 PM,-36.0,-9999,N/A,30.23,10.0,ESE,3.5,-,N/A,,Overcast,120,2012-12-04 07:53:00
11:53 PM,-36.0,-9999,N/A,30.23,10.0,Calm,Calm,-,N/A,,Overcast,0,2012-12-04 08:53:00